DW9489 Weather Reports


time (UTC)temp
C
wind
direction
speed
KPH
gust
KPH
rain 1hr
cm
rain 24hr
cm
rain mn
cm
humidity
%
barometer
mb
20260504001559 23 0 0.0 6.4 0.00 0.00 0.00 51 1009.5
20260504000041 23 0 0.0 4.8 0.00 0.00 0.00 50 1009.6
20260503234544 23 0 0.0 6.4 0.00 0.00 0.00 50 1009.8
20260503233045 25 19 1.6 4.8 0.00 0.00 0.00 48 1009.8
20260503231552 25 178 1.6 8.0 0.00 0.00 0.00 47 1010.0
20260503230059 25 325 0.0 9.7 0.00 0.00 0.00 44 1010.2
20260503224549 24 349 1.6 6.4 0.00 0.00 0.00 46 1010.6
20260503223043 24 42 1.6 14.5 0.00 0.00 0.00 48 1010.6
20260503221544 24 123 3.2 11.3 0.00 0.00 0.00 50 1010.9
20260503220045 24 0 1.6 16.1 0.00 0.00 0.00 49 1011.2
20260503214554 24 335 0.0 12.9 0.00 0.00 0.00 49 1011.3
20260503213133 24 331 1.6 14.5 0.00 0.00 0.00 51 1011.3
20260503211618 24 313 1.6 6.4 0.00 0.00 0.00 48 1011.3
20260503210044 23 338 1.6 11.3 0.00 0.00 0.00 48 1011.6
20260503204558 23 0 1.6 9.7 0.00 0.00 0.00 49 1011.6
20260503203042 23 0 1.6 12.9 0.00 0.00 0.00 49 1011.8
20260503201542 23 29 1.6 9.7 0.00 0.00 0.00 48 1011.9
20260503200048 23 298 1.6 9.7 0.00 0.00 0.00 51 1012.1
20260503194546 22 327 1.6 12.9 0.00 0.00 0.00 52 1012.2
20260503193042 22 325 1.6 8.0 0.00 0.00 0.00 54 1012.4
20260503191557 22 317 1.6 6.4 0.00 0.00 0.00 54 1012.6
20260503190044 22 0 1.6 14.5 0.00 0.00 0.00 53 1012.9
20260503184605 22 318 1.6 11.3 0.00 0.00 0.00 54 1012.9
20260503183048 22 0 1.6 8.0 0.00 0.00 0.00 54 1013.2
20260503181547 21 26 0.0 8.0 0.00 0.00 0.00 57 1013.1
20260503180045 20 289 1.6 9.7 0.00 0.00 0.00 61 1013.3
20260503174555 20 94 1.6 6.4 0.00 0.00 0.00 62 1013.3
20260503173051 20 0 0.0 4.8 0.00 0.00 0.00 63 1013.5
20260503171547 19 0 0.0 4.8 0.00 0.00 0.00 65 1013.4
20260503081556 16 13 0.0 3.2 0.00 0.00 0.00 63 1013.7
20260503071604 17 350 0.0 9.7 0.00 0.00 0.00 59 1013.6
20260503054554 18 9 0.0 6.4 0.00 0.00 0.00 56 1013.4
20260503053045 18 0 1.6 8.0 0.00 0.00 0.00 55 1013.4
20260503051551 18 349 0.0 9.7 0.00 0.00 0.00 54 1013.4
20260503050056 18 345 0.0 6.4 0.00 0.00 0.00 55 1013.3
20260503044544 18 46 0.0 6.4 0.00 0.00 0.00 54 1013.4
20260503043046 18 346 1.6 9.7 0.00 0.00 0.00 54 1013.2
20260503041546 19 333 1.6 12.9 0.00 0.00 0.00 54 1013.1
20260503040046 19 339 3.2 8.0 0.00 0.00 0.00 54 1013.0
20260503034551 19 5 3.2 16.1 0.00 0.00 0.00 55 1012.8
20260503033055 19 335 0.0 12.9 0.00 0.00 0.00 56 1012.6
20260503031541 19 17 4.8 14.5 0.00 0.00 0.00 57 1012.5
20260503030045 20 0 3.2 17.7 0.00 0.00 0.00 56 1012.4
20260503024549 20 349 4.8 16.1 0.00 0.00 0.00 57 1012.1
20260503023050 20 333 4.8 16.1 0.00 0.00 0.00 57 1012.1
20260503021543 20 114 3.2 22.5 0.00 0.00 0.00 56 1012.1
20260503020047 20 329 3.2 17.7 0.00 0.00 0.00 55 1012.1
20260503014601 20 263 1.6 14.5 0.00 0.00 0.00 55 1012.3
20260503013047 20 338 4.8 20.9 0.00 0.00 0.00 55 1012.4
20260503011600 21 329 3.2 19.3 0.00 0.00 0.00 54 1012.5
20260503010040 21 146 6.4 22.5 0.00 0.00 0.00 54 1012.5
20260503004541 21 28 3.2 14.5 0.00 0.00 0.00 56 1012.5
20260503003045 21 13 4.8 20.9 0.00 0.00 0.00 54 1012.7